| time (UTC) | temp F | wind direction | speed MPH | gust MPH | rain 1hr in | rain 24hr in | rain mn in | humidity % | barometer mb |
| 20260507223106 | 55 | 326 | 0.0 | 9.0 | 0.00 | 0.00 | 0.00 | 48 | 1006.2 |
| 20260507221641 | 55 | 277 | 1.0 | 7.0 | 0.00 | 0.00 | 0.00 | 45 | 1006.2 |
| 20260507220042 | 55 | 240 | 1.0 | 9.0 | 0.00 | 0.00 | 0.00 | 46 | 1006.1 |
| 20260507214606 | 55 | 242 | 5.0 | 10.0 | 0.00 | 0.00 | 0.00 | 44 | 1006.0 |
| 20260507213135 | 56 | 288 | 4.0 | 10.0 | 0.00 | 0.00 | 0.00 | 46 | 1006.0 |
| 20260507211542 | 56 | 295 | 2.0 | 11.0 | 0.00 | 0.00 | 0.00 | 48 | 1005.9 |
| 20260507210113 | 56 | 70 | 1.0 | 9.0 | 0.00 | 0.00 | 0.00 | 51 | 1005.8 |
| 20260507204656 | 56 | 247 | 2.0 | 6.0 | 0.00 | 0.00 | 0.00 | 53 | 1005.7 |
| 20260507203149 | 56 | 285 | 4.0 | 9.0 | 0.00 | 0.00 | 0.00 | 56 | 1005.6 |
| 20260507201529 | 56 | 327 | 2.0 | 14.0 | 0.00 | 0.00 | 0.00 | 51 | 1005.7 |
| 20260507200105 | 55 | 224 | 5.0 | 17.0 | 0.00 | 0.00 | 0.00 | 48 | 1005.7 |
| 20260507194608 | 56 | 268 | 8.0 | 16.0 | 0.00 | 0.00 | 0.00 | 44 | 1005.7 |
| 20260507193141 | 55 | 223 | 5.0 | 10.0 | 0.00 | 0.00 | 0.00 | 50 | 1005.9 |
| 20260507191520 | 54 | 294 | 7.0 | 14.0 | 0.00 | 0.00 | 0.00 | 49 | 1006.1 |
| 20260507190105 | 55 | 270 | 1.0 | 12.0 | 0.00 | 0.00 | 0.00 | 50 | 1006.0 |
| 20260507184521 | 57 | 238 | 6.0 | 11.0 | 0.00 | 0.00 | 0.00 | 52 | 1006.1 |
| 20260507183047 | 54 | 246 | 5.0 | 10.0 | 0.00 | 0.00 | 0.00 | 50 | 1006.1 |
| 20260507181615 | 56 | 209 | 7.0 | 15.0 | 0.00 | 0.00 | 0.00 | 49 | 1006.1 |
| 20260507180150 | 56 | 244 | 7.0 | 12.0 | 0.00 | 0.00 | 0.00 | 53 | 1006.2 |
| 20260507174539 | 56 | 250 | 5.0 | 11.0 | 0.00 | 0.00 | 0.00 | 53 | 1006.2 |
| 20260507173105 | 54 | 173 | 4.0 | 11.0 | 0.00 | 0.00 | 0.00 | 50 | 1006.4 |
| 20260507171527 | 55 | 188 | 6.0 | 11.0 | 0.00 | 0.00 | 0.00 | 47 | 1006.5 |
| 20260507170100 | 55 | 293 | 4.0 | 9.0 | 0.00 | 0.00 | 0.00 | 54 | 1006.5 |
| 20260507164541 | 53 | 313 | 2.0 | 12.0 | 0.00 | 0.00 | 0.00 | 51 | 1006.5 |
| 20260507163113 | 55 | 315 | 3.0 | 10.0 | 0.00 | 0.00 | 0.00 | 51 | 1006.4 |
| 20260507161647 | 54 | 229 | 4.0 | 8.0 | 0.00 | 0.00 | 0.00 | 54 | 1006.4 |
| 20260507160024 | 52 | 269 | 2.0 | 7.0 | 0.00 | 0.00 | 0.00 | 55 | 1006.6 |
| 20260507154601 | 53 | 236 | 4.0 | 12.0 | 0.00 | 0.00 | 0.00 | 51 | 1006.7 |
| 20260507153017 | 53 | 293 | 2.0 | 7.0 | 0.00 | 0.00 | 0.00 | 56 | 1006.7 |
| 20260507151600 | 53 | 200 | 1.0 | 12.0 | 0.00 | 0.00 | 0.00 | 62 | 1006.7 |
| 20260507150043 | 52 | 323 | 2.0 | 6.0 | 0.00 | 0.00 | 0.00 | 63 | 1006.7 |
| 20260507144607 | 52 | 207 | 2.0 | 7.0 | 0.00 | 0.00 | 0.00 | 66 | 1006.7 |
| 20260507143037 | 51 | 275 | 3.0 | 8.0 | 0.00 | 0.00 | 0.00 | 70 | 1006.7 |
| 20260507141604 | 50 | 296 | 1.0 | 9.0 | 0.00 | 0.00 | 0.00 | 68 | 1006.7 |
| 20260507140011 | 49 | 260 | 3.0 | 7.0 | 0.00 | 0.00 | 0.00 | 74 | 1006.8 |
| 20260507134604 | 48 | 186 | 3.0 | 9.0 | 0.00 | 0.00 | 0.00 | 73 | 1007.0 |
| 20260507133143 | 48 | 238 | 1.0 | 7.0 | 0.00 | 0.00 | 0.00 | 74 | 1007.1 |
| 20260507131541 | 47 | 208 | 3.0 | 6.0 | 0.00 | 0.00 | 0.00 | 74 | 1007.0 |
| 20260507130110 | 47 | 249 | 3.0 | 7.0 | 0.00 | 0.00 | 0.00 | 75 | 1007.0 |
| 20260507124638 | 46 | 228 | 2.0 | 8.0 | 0.00 | 0.00 | 0.00 | 78 | 1007.1 |
| 20260507121517 | 44 | 219 | 2.0 | 5.0 | 0.00 | 0.00 | 0.00 | 80 | 1007.0 |
| 20260507120055 | 44 | 239 | 2.0 | 5.0 | 0.00 | 0.00 | 0.00 | 81 | 1006.9 |
| 20260507114640 | 43 | 252 | 4.0 | 7.0 | 0.00 | 0.00 | 0.00 | 80 | 1006.9 |
| 20260507113146 | 43 | 263 | 1.0 | 6.0 | 0.00 | 0.00 | 0.00 | 81 | 1007.0 |
| 20260507111650 | 42 | 212 | 4.0 | 7.0 | 0.00 | 0.00 | 0.00 | 82 | 1006.6 |
| 20260507110013 | 41 | 193 | 3.0 | 6.0 | 0.00 | 0.00 | 0.00 | 82 | 1006.5 |
| 20260507104605 | 41 | 225 | 3.0 | 6.0 | 0.00 | 0.00 | 0.00 | 82 | 1006.4 |
| 20260507103140 | 41 | 194 | 2.0 | 4.0 | 0.00 | 0.00 | 0.00 | 83 | 1006.3 |
| 20260507101653 | 41 | 201 | 0.0 | 2.0 | 0.00 | 0.00 | 0.00 | 83 | 1006.3 |
| 20260507100019 | 41 | 192 | 0.0 | 2.0 | 0.00 | 0.00 | 0.00 | 83 | 1006.2 |
| 20260507094601 | 42 | 196 | 0.0 | 2.0 | 0.00 | 0.00 | 0.00 | 82 | 1006.2 |
| 20260507093144 | 43 | 232 | 1.0 | 2.0 | 0.00 | 0.00 | 0.00 | 78 | 1006.2 |
| 20260507091652 | 43 | 232 | 0.0 | 5.0 | 0.00 | 0.00 | 0.00 | 78 | 1006.3 |
| 20260507090040 | 43 | 211 | 2.0 | 4.0 | 0.00 | 0.00 | 0.00 | 78 | 1006.3 |
| 20260507084608 | 43 | 211 | 1.0 | 4.0 | 0.00 | 0.02 | 0.00 | 78 | 1006.3 |
| 20260507083015 | 43 | 211 | 1.0 | 5.0 | 0.00 | 0.02 | 0.00 | 78 | 1006.3 |
| 20260507081554 | 43 | 219 | 2.0 | 5.0 | 0.00 | 0.02 | 0.00 | 78 | 1006.5 |
| 20260507080137 | 42 | 213 | 1.0 | 3.0 | 0.00 | 0.02 | 0.00 | 80 | 1006.5 |
| 20260507074531 | 42 | 200 | 0.0 | 2.0 | 0.00 | 0.08 | 0.00 | 80 | 1006.4 |
| 20260507073109 | 42 | 216 | 0.0 | 2.0 | 0.00 | 0.08 | 0.00 | 80 | 1006.5 |
| 20260507071521 | 43 | 208 | 0.0 | 2.0 | 0.00 | 0.08 | 0.00 | 80 | 1006.5 |
| 20260507070109 | 43 | 208 | 0.0 | 2.0 | 0.00 | 0.08 | 0.00 | 81 | 1006.6 |
| 20260507064645 | 43 | 200 | 0.0 | 2.0 | 0.00 | 0.13 | 0.00 | 81 | 1006.6 |
| 20260507063020 | 43 | 200 | 0.0 | 2.0 | 0.00 | 0.13 | 0.00 | 82 | 1006.8 |
| 20260507061608 | 42 | 155 | 0.0 | 0.0 | 0.00 | 0.13 | 0.00 | 86 | 1006.8 |
| 20260507060141 | 42 | 156 | 0.0 | 0.0 | 0.00 | 0.13 | 0.00 | 88 | 1007.0 |
| 20260507054518 | 41 | 151 | 0.0 | 0.0 | 0.00 | 0.17 | 0.00 | 90 | 1007.1 |
| 20260507053052 | 41 | 151 | 0.0 | 0.0 | 0.00 | 0.17 | 0.00 | 89 | 1007.1 |
| 20260507051533 | 42 | 151 | 0.0 | 0.0 | 0.00 | 0.17 | 0.00 | 85 | 1007.1 |
| 20260507044503 | 44 | 151 | 1.0 | 2.0 | 0.00 | 0.20 | 0.00 | 82 | 1007.2 |
| 20260507043042 | 45 | 146 | 1.0 | 2.0 | 0.00 | 0.20 | 0.00 | 81 | 1007.2 |
| 20260507041635 | 45 | 153 | 1.0 | 2.0 | 0.00 | 0.20 | 0.00 | 81 | 1007.2 |
| 20260507040000 | 45 | 159 | 0.0 | 2.0 | 0.00 | 0.25 | 0.20 | 82 | 1007.3 |
| 20260507034653 | 45 | 144 | 1.0 | 2.0 | 0.00 | 0.25 | 0.20 | 84 | 1007.4 |
| 20260507033148 | 45 | 159 | 0.0 | 0.0 | 0.00 | 0.25 | 0.20 | 87 | 1007.6 |
| 20260507031656 | 45 | 84 | 0.0 | 0.0 | 0.00 | 0.25 | 0.20 | 89 | 1007.7 |
| 20260507030019 | 45 | 84 | 0.0 | 0.0 | 0.00 | 0.41 | 0.20 | 89 | 1007.8 |
| 20260507024608 | 45 | 84 | 0.0 | 0.0 | 0.00 | 0.41 | 0.20 | 87 | 1007.8 |
| 20260507023148 | 45 | 84 | 0.0 | 0.0 | 0.00 | 0.41 | 0.20 | 88 | 1007.6 |
| 20260507021513 | 45 | 65 | 0.0 | 0.0 | 0.00 | 0.41 | 0.20 | 88 | 1007.5 |
| 20260507020113 | 45 | 40 | 0.0 | 0.0 | 0.00 | 0.41 | 0.20 | 89 | 1007.5 |
| 20260507014634 | 46 | 40 | 0.0 | 0.0 | 0.00 | 0.54 | 0.20 | 86 | 1007.4 |
| 20260507013040 | 46 | 40 | 0.0 | 0.0 | 0.00 | 0.54 | 0.20 | 87 | 1007.3 |
| 20260507011553 | 46 | 40 | 0.0 | 0.0 | 0.00 | 0.54 | 0.20 | 85 | 1007.1 |
| 20260507010120 | 47 | 40 | 0.0 | 0.0 | 0.00 | 0.54 | 0.20 | 82 | 1007.0 |
| 20260507004528 | 48 | 40 | 0.0 | 0.0 | 0.00 | 0.56 | 0.20 | 70 | 1007.0 |
| 20260507003053 | 48 | 40 | 0.0 | 0.0 | 0.00 | 0.56 | 0.20 | 73 | 1006.9 |
| 20260507001635 | 49 | 42 | 0.0 | 2.0 | 0.00 | 0.56 | 0.20 | 65 | 1006.9 |
| 20260507000012 | 49 | 286 | 0.0 | 2.0 | 0.00 | 0.63 | 0.20 | 64 | 1007.0 |
| 20260506234558 | 50 | 291 | 0.0 | 2.0 | 0.00 | 0.63 | 0.20 | 64 | 1007.0 |
| 20260506233010 | 50 | 28 | 1.0 | 3.0 | 0.00 | 0.63 | 0.20 | 64 | 1006.9 |
| 20260506231603 | 50 | 30 | 0.0 | 3.0 | 0.00 | 0.63 | 0.20 | 63 | 1006.8 |
| 20260506230009 | 50 | 288 | 1.0 | 4.0 | 0.00 | 0.74 | 0.20 | 60 | 1006.8 |
| 20260506224552 | 50 | 340 | 1.0 | 4.0 | 0.00 | 0.74 | 0.20 | 58 | 1006.9 |